This is the latest recevied weather packets stored in our database for station/object KN6ETB-1. If no packets are shown the sender has not sent any weather packets the latest 10 day(s).
| Time | Temp. | Humidity | Pressure | Rain* | Wind** | Luminosity | Snow |
|---|---|---|---|---|---|---|---|
| 1777754959 | 19.44° C | 64% | 1009.6 hPa | 0 mm | - | 604 W/m² | - |
| 1777754656 | 19.44° C | 65% | 1009.5 hPa | 0 mm | - | 648 W/m² | - |
| 1777754354 | 19.44° C | 63% | 1009.9 hPa | 0 mm | - | 551 W/m² | - |
| 1777754051 | 19.44° C | 64% | 1009.8 hPa | 0 mm | - | 567 W/m² | - |
| 1777753746 | 18.89° C | 66% | 1009.8 hPa | 0 mm | - | 720 W/m² | - |
| 1777753444 | 18.89° C | 67% | 1009.7 hPa | 0 mm | - | 625 W/m² | - |
| 1777753142 | 18.89° C | 66% | 1009.8 hPa | 0 mm | - | 619 W/m² | - |
| 1777752838 | 18.89° C | 67% | 1010 hPa | 0 mm | - | 641 W/m² | - |
| 1777752534 | 18.33° C | 67% | 1009.6 hPa | 0 mm | - | 553 W/m² | - |
| 1777752230 | 18.33° C | 67% | 1009.9 hPa | 0 mm | - | 677 W/m² | - |
| 1777751928 | 18.33° C | 68% | 1009.8 hPa | 0 mm | - | 729 W/m² | - |
| 1777751625 | 17.78° C | 70% | 1009.8 hPa | 0 mm | - | 652 W/m² | - |
| 1777751321 | 17.78° C | 70% | 1009.9 hPa | 0 mm | - | 613 W/m² | - |
| 1777751018 | 17.22° C | 71% | 1009.9 hPa | 0 mm | - | 598 W/m² | - |
| 1777750714 | 17.22° C | 72% | 1009.9 hPa | 0 mm | - | 652 W/m² | - |
| 1777750411 | 16.67° C | 73% | 1009.9 hPa | 0 mm | - | 499 W/m² | - |
| 1777750107 | 16.67° C | 73% | 1010.1 hPa | 0 mm | - | 654 W/m² | - |
| 1777749804 | 17.22° C | 72% | 1010 hPa | 0 mm | - | 517 W/m² | - |
| 1777749501 | 17.22° C | 73% | 1009.9 hPa | 0 mm | - | 617 W/m² | - |
| 1777749199 | 17.22° C | 73% | 1010 hPa | 0 mm | - | 696 W/m² | - |
| 1777748896 | 16.67° C | 73% | 1009.9 hPa | 0 mm | - | 492 W/m² | - |
| 1777748593 | 16.67° C | 74% | 1009.8 hPa | 0 mm | - | 474 W/m² | - |
| 1777748289 | 16.11° C | 75% | 1009.7 hPa | 0 mm | - | 484 W/m² | - |
| 1777747985 | 16.11° C | 75% | 1009.7 hPa | 0 mm | - | 411 W/m² | - |
| 1777747682 | 16.11° C | 76% | 1010 hPa | 0 mm | - | 597 W/m² | - |
* Rain latest hour (hover to see other rain measurements)
** Current wind speed in m/s (hover to see current wind gust speed)